Location: Strawberry
(45.6646°N, 111.9596°W)
Time: 23:15:35
(UTC+00:00)

Courier 1B Rocket - Pass Details

Date: 05 October 2022
Orbit: 920 x 1202 km, 28.3° (Epoch: 03 December)

Event Time Altitude Azimuth Distance (km) Brightness Sun altitude
Rises 05:09:51 0° 245° (WSW) 3,644 8.2 -40.7°
Enters shadow 05:10:44 - 241° (WSW) 3,408 8.0 -40.8°
Reaches altitude 10° 05:14:27 10° 216° (SW) 2,646 - -41.2°
Maximum altitude 05:16:42 12° 195° (SSW) 2,481 - -41.5°
Drops below altitude 10° 05:18:58 10° 173° (S) 2,613 - -41.8°
Sets 05:23:25 0° 144° (SE) 3,541 - -42.3°
